Location: Levittown
(40.7259°N, 73.5143°W)
Time: 02:58:41
(UTC+00:00)

Daily predictions for brighter satellites

Satellite Brightness Start Highest point End
(mag) Time Altitude Azimuth Time Altitude Azimuth Time Altitude Azimuth
CENTAUR R/B 3.4 00:31:28 10° NW 00:39:49 85° NE 00:48:48 10° SE
Cosmos 1825 Rocket 3.5 00:39:43 10° S 00:44:01 73° E 00:48:21 10° NNE
Cosmos-2242 3.0 00:39:55 10° N 00:44:13 79° E 00:48:27 10° S
RESURS DK-1 4.3 00:44:45 10° ESE 00:46:08 11° E 00:47:31 10° E
Cosmos 1634 Rocket 4.1 00:43:56 10° N 00:50:13 64° E 00:56:22 10° SSE
In-Cosmos 22 Rocket 4.1 00:46:02 10° S 00:51:20 84° E 00:56:41 10° N
USA 238 DEB 4.1 00:47:07 10° NW 00:54:29 82° WSW 01:02:07 10° SSE
USA 238 4.1 00:47:13 10° NW 00:54:36 82° WSW 01:02:14 10° SSE
Cosmos 44 Rocket 4.1 00:51:11 10° S 00:55:46 34° ESE 01:00:27 10° NE
IRIS 4.0 00:53:19 10° W 00:55:48 81° N 00:59:16 10° E
ISS -0.9 00:56:56 10° NNW 00:58:36 13° N 01:00:15 10° NNE
IRS-1A Rocket 4.3 00:57:10 10° SSE 01:02:42 73° ENE 01:08:12 10° N
Ariane Rocket 3.0 00:58:42 10° SSE 01:03:44 68° ENE 01:08:47 10° N
ERS-2 2.1 01:02:14 10° NNE 01:05:51 62° ESE 01:09:27 10° S
Helios 1A Rocket 3.7 01:03:43 10° S 01:07:38 53° W 01:11:37 10° NNW
SEDSat Delta rocket 4.5 01:05:00 10° SSW 01:07:38 17° SSE 01:09:40 12° SE
OAO 2 Rocket 3.8 01:05:35 10° WSW 01:10:21 43° S 01:14:32 13° ESE
Cosmos 2221 3.2 01:12:04 10° N 01:16:05 37° ENE 01:19:20 14° SE
MOS 1 4.4 01:10:30 10° SSE 01:16:10 85° WSW 01:21:52 10° NNW
Cosmos 1242 Rocket 2.6 01:13:06 10° N 01:16:40 61° ENE 01:19:51 12° SSE
USA 307 3.2 01:13:54 10° NW 01:18:07 62° SW 01:21:34 15° SE
BREEZE-M DEB (TANK) 2.9 01:15:42 10° SSW 01:18:36 54° SE 01:26:50 10° ENE
Cosmos 1697 Rocket 3.0 01:17:43 10° NNW 01:23:18 54° ENE 01:27:44 16° SE
Meteor 2-13 Rocket 4.4 01:20:14 10° S 01:26:21 81° E 01:32:27 10° N
Terra 3.9 01:25:52 10° E 01:28:14 14° ENE 01:30:36 10° NNE
Cosmos 2082 Rocket 2.4 01:23:17 10° S 01:28:37 46° ESE 01:33:59 10° NE
ERBS 4.2 01:28:22 10° NNW 01:30:53 20° NE 01:32:57 12° E
IGS 5A 3.4 01:27:47 12° SSE 01:31:34 84° ENE 01:35:43 10° N
Hubble Space Telescope 2.7 01:29:37 10° SSW 01:31:41 13° S 01:31:56 13° SSE
Cosmos 1833 Rocket 2.8 01:26:45 10° SSW 01:32:23 79° WNW 01:38:03 10° NNE
SPOT 3 Rocket 3.6 01:28:49 14° SSE 01:33:20 68° ENE 01:38:32 10° N
Cosmos 1606 3.3 01:30:48 10° N 01:34:21 39° ENE 01:36:14 22° SE
USA 305 3.8 01:30:52 10° WNW 01:34:46 39° SW 01:37:38 16° SSE
USA 308 3.6 01:30:52 10° WNW 01:34:55 44° SW 01:37:46 18° SSE
Cosmos 773 Rocket 3.9 01:32:24 10° S 01:37:34 66° ESE 01:42:43 10° NNE
Cosmos 2279 Rocket 4.1 01:40:24 10° N 01:46:35 75° W 01:52:44 10° S
Cosmos 2151 3.8 01:47:17 26° SE 01:48:41 32° E 01:52:28 10° NNE
Landsat 7 4.1 01:49:11 14° S 01:53:10 68° WSW 01:57:55 10° NNW
Cosmos 2058 3.9 01:51:17 10° SSW 01:55:18 46° W 01:59:21 10° N
COSMOS 2406 3.9 01:50:04 10° SW 01:55:37 57° WNW 02:01:15 10° NNE
Cosmos 1842 Rocket 3.6 01:51:49 10° N 01:56:18 80° W 01:59:20 20° S
GP-B 4.0 01:52:25 10° NNE 01:56:21 30° E 01:57:26 27° ESE
Meteor 2-3 Rocket 4.4 01:54:12 24° SE 01:56:43 36° E 02:01:51 10° NNE
Cosmos 1825 4.3 01:53:33 10° SW 01:56:44 26° WNW 01:59:56 10° NNW
Cosmos 2369 3.7 01:52:29 10° NNW 01:58:09 74° ENE 02:01:22 26° SSE
ERS-1 Rocket 3.6 02:00:52 27° ESE 02:03:02 42° ENE 02:07:45 10° N
Spot 2 Rocket 3.6 02:01:35 28° SE 02:04:13 63° ENE 02:09:18 10° N
Cosmos 1076 Rocket 3.5 02:02:52 18° S 02:06:02 87° WNW 02:10:24 10° N
ATLAS 2AS CENTAUR R/B 3.4 02:00:12 10° SW 02:08:04 68° NW 02:15:50 10° NNE
Cosmos 1980 Rocket 2.2 02:03:49 10° NNW 02:09:26 67° ENE 02:12:06 31° SE
Resurs 01 Rocket 3.0 02:08:50 12° SSW 02:12:32 35° W 02:16:36 10° NNW
Nadezhda 4 Rocket 4.0 02:07:55 11° S 02:13:54 83° W 02:20:08 10° N
Cosmos 2322 Rocket 4.1 02:12:41 10° N 02:16:30 18° NE 02:19:11 14° E
Cosmos 1538 Rocket 3.9 02:13:44 18° S 02:17:41 76° ESE 02:22:52 10° NNE
Cosmos 158 Rocket 4.0 02:18:29 34° SSE 02:20:30 56° ESE 02:25:37 10° NNE
RESURS DK-1 2.9 02:19:31 10° SW 02:23:36 58° WNW 02:27:43 10° NNE
Cosmos 2098 Rocket 3.3 02:22:42 28° SW 02:23:43 39° W 02:26:41 10° N
USA 267 3.1 02:19:13 10° NE 02:25:46 72° SE 02:32:18 10° SW
GENESIS II 4.4 02:21:58 10° NW 02:25:49 62° WSW 02:26:31 51° S
USA 245 4.4 02:22:59 24° S 02:26:26 62° WSW 02:31:20 10° NNW
Meteor 2-19 Rocket 4.3 02:22:44 23° S 02:26:42 85° E 02:32:47 10° N
Cosmos 1271 Rocket 3.4 02:24:08 10° N 02:27:54 40° ENE 02:28:02 40° E
BREEZE-M DEB (TANK) 4.2 02:25:10 10° NW 02:29:02 72° NNE 02:36:57 21° ESE
ATLAS 3B R/B 3.0 02:22:04 10° NNW 02:29:10 65° NE 02:32:46 32° SE
Cosmos 1633 4.1 02:29:09 16° SW 02:31:33 33° WNW 02:34:52 10° NNW
SPOT 1/Viking Rocket 4.3 02:28:26 21° SSW 02:31:35 46° W 02:36:36 10° NNW
ISS -1.5 02:33:48 10° NNW 02:36:24 20° NNE 02:37:38 17° NE
Cosmos 1428 Rocket 4.4 02:37:00 34° S 02:39:49 76° E 02:45:56 10° N
ARIANE 5 R/B 2.8 02:38:33 43° SSW 02:39:52 67° WSW 02:44:21 10° NNW
Cosmos 1933 3.1 02:36:38 10° N 02:40:42 85° E 02:41:03 73° SSE
SL-16 R/B 3.2 02:36:48 10° N 02:41:59 35° ENE 02:43:41 29° E
SPOT 5 2.6 02:44:08 56° S 02:44:58 75° WSW 02:49:18 10° NNW
Cosmos 1553 Rocket 4.4 02:41:37 10° N 02:47:24 44° ENE 02:48:47 38° ESE
Cosmos 304 Rocket 3.9 02:42:59 10° NNW 02:47:43 58° ENE 02:48:21 53° E
USA 234 4.2 02:53:40 18° E 02:58:06 42° NNE 03:04:11 10° NW
Meteor 1-26 Rocket 4.3 02:56:50 10° NNW 03:02:50 80° W 03:04:29 50° S
Cosmos 371 Rocket 3.7 02:59:43 10° NNW 03:04:23 51° WSW 03:05:07 46° SW
Cosmos 923 Rocket 3.9 03:03:16 56° S 03:04:26 85° ESE 03:09:48 10° NNE
Terra 1.9 03:04:43 59° SSW 03:05:24 68° WSW 03:10:09 10° NNW
ERBS 4.2 03:04:02 10° WNW 03:05:39 24° W 03:05:39 24° W
Cosmos 1862 4.3 03:12:08 37° NE 03:12:08 37° NE 03:14:51 10° NNE
Cosmos 2082 Rocket 4.2 03:08:15 10° WSW 03:12:54 26° NW 03:17:37 10° N
S3M 4.3 03:08:38 10° N 03:14:49 50° ENE 03:15:54 46° ESE
Cosmos 2278 4.4 03:09:47 10° NW 03:15:07 44° WSW 03:16:22 38° SW
Cosmos 1766 Rocket 3.7 03:18:52 69° W 03:18:54 69° W 03:23:18 10° N
Meteor 2-14 Rocket 4.3 03:17:55 58° S 03:19:14 83° E 03:25:25 10° N
Cosmos 2056 Rocket 4.3 03:14:49 10° N 03:19:51 39° ENE 03:20:20 39° ENE
Cosmos 1812 3.6 03:16:33 10° N 03:19:23 45° NNE 03:19:23 45° NNE
Cosmos 1782 3.6 03:19:45 10° NNW 03:23:15 47° WNW 03:23:15 47° WNW
Cosmos 2333 Rocket 4.1 03:21:45 10° N 03:25:39 19° NE 03:27:40 16° ENE
Gbstr 26 Del rocket 4.1 03:24:23 10° NW 03:27:59 35° NNE 03:28:19 34° NE
Cosmos 2360 Rocket 3.0 03:26:59 10° N 03:32:15 39° ENE 03:33:01 37° ENE
Cosmos 1328 Rocket 3.9 03:30:05 10° NNW 03:34:03 64° NW 03:34:03 64° NW
Cosmos 2112 Rocket 4.0 03:38:50 68° WSW 03:39:20 74° WNW 03:44:38 10° NNE
Cosmos 1371 Rocket 4.1 03:35:33 10° NNW 03:40:55 68° ENE 03:40:56 68° ENE
Cosmos 1680 Rocket 3.9 03:40:31 52° WSW 03:41:27 60° WNW 03:46:40 10° NNE
Cosmos 1151 Rocket 4.1 03:41:01 10° NNW 03:44:42 38° W 03:44:42 38° W
Cosmos 1980 Rocket 4.2 03:49:25 10° WNW 03:52:48 16° W 03:53:53 16° WSW
BREEZE-M DEB (TANK) 3.9 03:49:38 10° WNW 03:54:13 60° SSW 03:55:45 52° S
Cosmos 2322 Rocket 2.2 03:55:32 10° NNW 04:00:59 72° W 04:00:59 72° W
Cosmos 1500 Rocket 4.4 04:05:32 48° N 04:05:32 48° N 04:08:45 10° N
USA 267 4.5 04:02:30 10° NE 04:08:29 39° NNW 04:14:27 10° W
ISS -0.7 04:10:12 10° NW 04:10:34 13° NW 04:10:34 13° NW
Cosmos 2315 Rocket 3.9 04:10:57 10° N 04:17:16 82° E 04:17:33 80° SE
ATLAS 3B R/B 4.0 04:13:34 10° NW 04:19:25 27° WSW 04:20:00 27° WSW
Cosmos 292 Rocket 4.3 04:14:40 10° NNW 04:18:26 55° N 04:18:26 55° N
Cosmos 2237 4.4 04:15:10 10° NNW 04:20:24 64° W 04:20:24 64° W
Meteor 1-27 Rocket 3.7 04:17:12 10° NNW 04:22:32 78° NW 04:22:32 78° NW
COSMOS 2428 3.8 04:18:20 10° N 04:23:29 33° ENE 04:24:20 32° ENE
Cosmos 2333 4.5 04:18:02 10° NNW 04:23:31 57° ENE 04:23:31 57° ENE
Cosmos 2228 Rocket 4.1 04:19:30 10° N 04:22:34 44° N 04:22:34 44° N
SL-16 R/B 3.3 04:20:59 10° NW 04:25:32 33° W 04:25:32 33° W
Cosmos 2219 Rocket 2.9 04:23:58 10° NNW 04:29:19 44° ENE 04:29:34 44° ENE
Thor Agena Rocket 4.5 04:31:09 10° NNE 04:34:44 37° ENE 04:34:44 37° ENE
Cosmos 1420 Rocket 4.5 04:32:51 10° NNW 04:37:14 55° WNW 04:37:14 55° WNW
USA 234 3.2 04:41:00 67° SW 04:41:00 67° SW 04:47:25 10° NW
COSMOS 2455 2.8 04:44:29 79° NE 04:44:29 79° NE 04:50:09 10° NNE
Sich 1 4.2 04:45:43 41° N 04:45:43 41° N 04:48:38 10° N
Cosmos 489 Rocket 4.4 04:48:18 78° E 04:48:18 78° E 04:54:30 10° NNE
BREEZE-M DEB (TANK) 3.9 04:36:32 10° WSW 04:48:55 87° NNW 04:52:54 10° ENE
Nimbus 7 Rocket 4.3 04:46:04 10° NNE 04:52:07 81° WNW 04:52:07 81° WNW
Cosmos 1452 Rocket 3.8 04:47:38 10° NNW 04:52:03 63° NNW 04:52:03 63° NNW
Meteor 1-20 Rocket 4.3 04:53:51 67° NW 04:53:51 67° NW 04:59:03 10° N
ALOS 2 4.2 04:56:16 30° NW 04:56:16 30° NW 04:58:52 10° NNW
Cosmos 1745 Rocket 4.3 05:00:51 54° E 05:00:51 54° E 05:06:52 10° NNE
Meteor 1-18 Rocket 4.4 04:55:56 10° N 05:01:37 67° ENE 05:01:37 67° ENE
Geosat 4.3 05:05:50 63° N 05:05:50 63° N 05:10:11 10° NNW
ATLAS 5 CENTAUR R/B 3.5 05:04:49 10° NNW 05:10:03 38° NE 05:12:56 25° E
Cosmos 2333 Rocket 2.5 05:04:52 10° NNW 05:09:38 60° WNW 05:09:38 60° WNW
Cosmos 2360 Rocket 3.6 05:11:17 10° NW 05:14:45 26° W 05:14:45 26° W
Lacrosse 5 3.9 05:18:45 17° E 05:18:45 17° E 05:20:23 10° ENE
Resurs 1-4 Rocket 4.0 05:18:48 10° NE 05:22:21 19° E 05:22:21 19° E
Cosmos 1110 Rocket 4.3 05:19:35 10° NNW 05:24:10 66° N 05:24:10 66° N
Nadezhda 1 Rocket 3.9 05:18:34 10° N 05:25:00 78° E 05:25:20 76° ESE
Cosmos 2322 4.3 05:20:04 10° NNW 05:24:37 48° WNW 05:24:37 48° WNW
Cosmos 1386 Rocket 4.4 05:26:53 84° SSE 05:27:05 86° E 05:33:32 10° N
NOSS 3-1 (C) 4.1 05:22:14 10° NW 05:29:59 72° WSW 05:31:18 62° S
Meteor 1-14 Rocket 4.2 05:33:56 72° NW 05:33:56 72° NW 05:39:06 10° N
Cosmos 1331 Rocket 4.3 05:29:46 10° NNW 05:34:07 62° NNW 05:34:07 62° NNW
Cosmos 2297 Rocket 2.6 05:37:04 51° E 05:37:04 51° E 05:42:02 10° NNE
USA 229 DEB 3.8 05:33:59 10° NW 05:41:26 90° ENE 05:43:12 58° SSE
USA 229 3.8 05:34:05 10° NW 05:41:32 89° NE 05:43:21 57° SE
Cosmos 2237 Rocket 2.7 05:38:10 10° NNW 05:43:42 52° ENE 05:44:36 48° E
Cosmos 2227 Rocket 2.7 05:47:43 48° E 05:47:43 48° E 05:52:46 10° NE
ASTEX 1 4.1 05:50:13 46° ENE 05:50:13 46° ENE 05:54:47 10° N
Meteor 2-4 Rocket 4.0 05:54:40 10° NNW 06:00:14 58° W 06:00:14 58° W
CZ-2D R/B 2.9 05:55:45 10° NNE 06:00:50 41° E 06:01:02 41° ESE
Cosmos 1269 Rocket 4.1 06:01:46 73° NNW 06:01:46 73° NNW 06:06:43 10° NNE
Cosmos 1869 Rocket 4.4 06:02:38 47° NE 06:02:38 47° NE 06:06:14 10° NNE
NOSS 3-1 (A) 4.0 05:54:06 10° NW 06:01:53 73° WSW 06:04:02 54° S
ADEOS II 3.9 05:59:03 10° NE 06:02:52 20° E 06:03:49 19° ESE
Cosmos 1340 Rocket 4.3 06:07:38 33° NNW 06:07:38 33° NNW 06:09:59 10° N
SL-16 R/B 3.9 06:02:26 10° N 06:07:21 29° NE 06:12:02 11° ESE
COSMOS 2428 3.8 06:02:36 10° NW 06:06:19 31° WNW 06:06:19 31° WNW
Cosmos 2219 Rocket 3.8 06:08:28 10° NW 06:11:15 22° WNW 06:11:15 22° WNW
Cosmos 2263 Rocket 4.4 06:12:47 12° ESE 06:14:27 13° E 06:17:03 10° ENE
Timation 1 Rocket 4.3 06:15:47 64° SE 06:16:12 67° ESE 06:22:08 10° NNE
Helios 1A 3.7 06:17:21 49° NNW 06:17:21 49° NNW 06:20:29 10° NNW
Okean 3 4.1 06:16:04 10° N 06:19:37 55° NNE 06:19:37 55° NNE
Okean 1-7 4.0 06:18:04 10° NNW 06:20:56 39° NNW 06:20:56 39° NNW
Cosmos 1302 Rocket 4.3 06:19:16 10° NNW 06:23:41 55° WNW 06:23:41 55° WNW
Cosmos 909 Rocket 4.1 06:32:17 57° SW 06:33:44 79° WNW 06:41:11 10° NNE
Cosmos 2219 3.3 06:34:37 58° W 06:35:17 62° WNW 06:41:00 10° NNE
UNK 3.9 06:36:39 64° ESE 06:37:02 68° ENE 06:41:41 10° N
Cosmos 1709 Rocket 4.5 06:37:29 43° W 06:38:19 45° WNW 06:44:24 10° N
Helios 1B rocket 3.0 06:35:00 10° NNE 06:38:41 52° E 06:38:41 52° E
Cosmos 1066 Rocket 4.2 06:35:24 10° NNW 06:41:13 66° W 06:41:46 63° SW
Timation 2 Rocket 3.8 06:46:12 58° SW 06:47:19 74° WNW 06:53:24 10° NNE
Cosmos 2084 Rocket 3.7 06:49:05 10° NW 06:52:38 61° NW 06:52:38 61° NW
IDEFIX/ARIANE 42P 3.9 06:48:55 10° NNE 06:53:31 32° E 06:55:37 23° SE
ATLAS 5 CENTAUR R/B 2.8 06:49:14 10° NW 06:54:21 43° WSW 06:54:21 43° WSW
Cosmos 2082 3.6 06:54:29 60° SSW 06:55:36 90° ESE 07:01:22 10° NNE
Cosmos 2251 Rocket 3.4 06:56:04 66° SSW 06:56:51 89° ESE 07:02:11 10° NNE
Meteor 1-11 Rocket 4.4 06:56:39 37° W 06:57:14 38° WNW 07:02:23 10° N
Cosmos 1536 4.4 06:58:20 26° NW 06:58:20 26° NW 07:01:00 10° NNW
Lacrosse 5 2.3 06:57:56 47° W 06:58:57 55° NW 07:03:56 10° NE
Cosmos 2184 Rocket 3.9 06:59:24 50° SSW 07:01:10 82° W 07:07:29 10° N
SL-16 R/B 2.5 07:00:09 49° SSW 07:01:44 67° WSW 07:07:54 10° NNW
Resurs 1-4 Rocket 2.3 06:57:25 10° N 07:02:35 54° WNW 07:03:26 48° WSW
Cosmos 1241 Rocket 4.5 07:05:27 46° SSW 07:07:36 88° WNW 07:14:10 10° NNE
Cosmos 2154 Rocket 4.0 07:05:52 40° S 07:08:18 78° E 07:14:30 10° N
Cosmos 1356 Rocket 4.5 07:08:36 32° SE 07:09:33 37° E 07:13:15 10° NNE
Cosmos 1733 Rocket 2.9 07:13:20 68° SW 07:13:45 75° W 07:18:13 10° N
SL-8 R/B 3.7 07:15:14 56° S 07:15:45 60° SE 07:20:29 10° ENE
Cosmos 1140 Rocket 4.1 07:14:54 33° SSE 07:16:51 51° ESE 07:21:55 10° NNE
Cosmos 2297 Rocket 3.7 07:18:52 20° W 07:20:53 24° NW 07:25:24 10° N
AQUA 4.1 07:16:19 10° N 07:20:57 53° WNW 07:21:46 46° WSW
NPP 4.1 07:17:36 10° N 07:22:44 46° WNW 07:24:07 38° WSW
Cosmos 2074 Rocket 4.3 07:23:14 38° SW 07:25:10 51° WNW 07:31:13 10° N
Cosmos 2237 Rocket 3.6 07:23:08 10° NW 07:26:22 21° W 07:26:22 21° W
ADEOS Rocket 3.0 07:29:11 39° SW 07:30:45 50° W 07:36:05 10° NNW
ARIANE 5 R/B 3.9 07:26:37 10° NNE 07:31:16 33° E 07:35:20 13° SSE
Okean 2 3.5 07:27:11 10° N 07:31:21 72° E 07:33:05 34° SSE
Cosmos 2227 Rocket 3.6 07:29:32 20° W 07:31:39 25° NW 07:36:18 10° N
CZ-2D R/B 3.4 07:36:14 10° N 07:40:38 26° WNW 07:42:21 22° W
Meteor 1-28 Rocket 3.1 07:41:29 55° SW 07:42:01 64° W 07:45:44 10° NNW
ADEOS II 2.4 07:37:44 10° N 07:42:48 50° WNW 07:44:45 33° SW
Meteor 2-9 Rocket 4.4 07:43:10 35° SW 07:45:03 51° WNW 07:50:15 10° N
SL-8 Rocket 4.4 07:40:18 15° SSE 07:45:21 60° E 07:51:25 10° NNE
IRS-1D 3.6 07:41:46 10° N 07:46:39 61° WNW 07:48:42 34° SW
NOSS 3-3 (A) 3.8 07:44:35 32° SSW 07:47:25 80° ESE 07:53:47 10° NE
NOSS 3-3 (C) 3.8 07:44:42 32° SSW 07:47:31 80° ESE 07:53:52 10° NE
Cosmos 2227 4.3 07:45:48 28° S 07:48:53 73° ESE 07:54:29 10° NNE
Cosmos 1782 Rocket 4.3 07:46:19 19° SSE 07:49:13 49° E 07:53:26 10° NNE
IRS-1C 4.4 07:46:01 10° NNE 07:51:19 64° ESE 07:55:10 19° S
SL-16 R/B 2.6 07:46:17 10° NW 07:51:32 41° WSW 07:53:48 28° SSW
Iridium 4 Rocket 3.9 07:47:21 10° NNW 07:52:45 55° W 07:55:47 27° SSW
Cosmos 2263 Rocket 2.2 07:54:29 28° SSW 07:57:34 80° WNW 08:03:18 10° NNE
Cosmos 1975 3.7 07:57:17 30° WSW 07:58:05 33° WNW 08:01:49 10° NNW
ATLAS CENTAUR R/B 1.5 07:57:40 32° S 07:59:08 58° ESE 08:02:59 10° NE
Landsat 4 4.5 07:57:55 10° N 08:01:19 36° WNW 08:02:12 31° WSW
CZ-4C R/B 3.1 07:55:43 10° NNW 08:03:13 85° NE 08:11:47 10° SE
Cosmos 407 Rocket 3.8 08:01:06 28° SW 08:03:46 55° WNW 08:08:58 10° N
Cosmos 1461 3.6 08:05:09 27° WSW 08:07:19 47° NW 08:11:39 10° NNE
Cosmos 1707 2.8 08:04:32 10° NNW 08:08:16 52° W 08:10:01 28° SSW
Cosmos 2344 3.6 08:04:50 22° SW 08:09:58 73° NW 08:17:41 10° NNE
ALOS 4.3 08:07:23 10° NE 08:11:12 24° E 08:14:59 10° SSE
GEOS 3 Rocket 4.2 08:05:57 10° SE 08:11:14 64° NE 08:16:30 10° NNW
Cosmos 2341 Rocket 4.0 08:06:43 20° SSW 08:11:14 68° W 08:17:27 10° N
Spot 1 3.8 08:08:53 10° SSE 08:13:04 82° WSW 08:17:10 10° NNW
Cosmos 2218 Rocket 4.1 08:07:37 11° S 08:13:42 84° E 08:20:05 10° N
In-Cosmos 22 4.2 08:08:50 10° NNW 08:14:36 70° W 08:20:16 10° S
Cosmos 1238 Rocket 4.0 08:18:43 17° W 08:19:02 18° WNW 08:21:20 10° NNW
SL-08 R/B 3.5 08:15:24 10° SSE 08:20:19 79° ENE 08:25:18 10° N
Cosmos 1733 3.9 08:18:03 10° S 08:21:48 53° E 08:25:32 10° NNE
COSMOS 2441 4.5 08:17:23 10° N 08:22:07 61° WNW 08:25:38 18° SSW
Cosmos 1766 4.4 08:19:59 10° SSE 08:23:38 41° E 08:27:19 10° NNE
Cosmos 1300 Rocket 4.1 08:25:29 10° S 08:29:43 59° E 08:34:01 10° NNE
Cosmos 1943 3.2 08:25:33 10° NNW 08:31:17 82° WSW 08:36:57 10° SSE
IRS-P3 4.3 08:26:38 10° N 08:31:51 56° WNW 08:36:17 14° SW
BREEZE-M DEB (TANK) 3.6 08:30:27 15° W 08:32:10 33° NNW 08:34:21 10° NE
IDEFIX/ARIANE 42P 3.5 08:28:31 10° N 08:33:01 31° WNW 08:36:25 16° WSW
Cosmos 1975 Rocket 3.0 08:31:15 10° NNW 08:35:39 75° W 08:39:58 10° S
USA 290 4.2 08:33:03 10° N 08:36:02 32° ENE 08:38:59 10° SE
SL-24 R/B - RUBIN 2 4.3 08:31:53 10° NNW 08:36:50 63° NE 08:41:15 10° SE
CZ-3 Stage 3 3.3 08:34:43 10° S 08:36:51 15° SE 08:40:37 10° ESE
CZ-2C R/B 2.4 08:33:29 10° NNE 08:38:05 74° ESE 08:42:41 10° S
Cosmos 1340 2.7 08:36:51 10° NNW 08:40:31 55° W 08:44:10 10° S
USA 215 3.3 08:35:12 10° NE 08:41:47 85° SE 08:47:58 12° SW
Cosmos 1900 4.3 08:37:53 14° SSW 08:42:13 83° WNW 08:47:12 10° NNE
Lacrosse 5 4.1 08:39:33 10° WNW 08:42:55 17° NNW 08:46:16 10° NNE
Cosmos 1400 Rocket 2.7 08:40:33 11° SSW 08:44:16 70° W 08:48:10 10° N
Cosmos 1626 2.0 08:41:05 10° N 08:44:46 84° W 08:48:27 10° S
Meteor 1-12 Rocket 4.5 08:45:17 10° SSW 08:50:47 54° WNW 08:56:23 10° N
Cosmos 1674 3.3 08:47:15 10° NNW 08:50:49 38° W 08:54:22 10° SSW
Cosmos 1315 Rocket 4.3 08:48:03 10° SSE 08:51:52 39° E 08:55:41 10° NNE
BREEZE-M DEB (TANK) 4.2 08:48:09 10° W 08:55:55 39° NNW 08:58:47 10° NE
PSLV R/B 4.2 08:54:16 10° NNE 08:58:31 57° E 09:02:41 10° S
Cosmos 1850 Rocket 4.2 08:55:09 10° SSW 09:00:26 80° ESE 09:05:44 10° NNE
Meteor 2-5 Rocket 4.1 08:58:17 10° N 09:04:14 75° E 09:10:03 10° SSE
Cosmos 468 Rocket 4.0 09:00:04 10° NNW 09:05:23 88° WSW 09:10:38 10° SSE
CZ-4B R/B 4.1 09:01:13 10° N 09:05:39 36° WNW 09:10:00 10° SW
Cosmos 1821 Rocket 4.0 09:00:36 10° S 09:06:46 87° W 09:12:54 10° N
ASTRO E2 4.2 09:05:49 10° SW 09:08:52 21° S 09:11:54 10° SE
Cosmos 1025 Rocket 3.1 09:05:24 10° NNW 09:09:37 55° W 09:13:51 10° S
Cosmos 44 4.0 09:05:20 10° NW 09:09:58 34° WSW 09:14:21 10° S
ARIANE 5 R/B 3.6 09:05:48 10° N 09:10:16 30° WNW 09:14:45 10° SW
Cosmos 1844 Rocket 2.8 09:05:33 10° SSW 09:11:11 86° ESE 09:16:54 10° NNE
BREEZE-M DEB (TANK) 2.5 09:08:43 10° WNW 09:11:34 86° NNE 09:15:24 10° ESE
USA 267 4.5 09:07:39 10° ESE 09:13:49 47° NNE 09:20:01 10° NW
Iridium 51 4.2 09:10:34 10° SSW 09:13:56 51° W 09:17:20 10° N
FENGYUN 3A 3.7 09:12:08 10° N 09:17:32 68° WNW 09:22:53 10° SSW
CZ-3 R/B 3.9 09:20:16 10° SW 09:39:59 33° S 09:46:51 10° ESE
